Location: Newark
(10.3333°N, 37.7167°E)
Time: 03:17:49
(UTC+00:00)

STARLINK-1106 - Pass Details

Date: 04 February 2020
Orbit: 525 x 527 km, 53.0° (Epoch: 16 February)

Event Time Altitude Azimuth Distance (km) Brightness Sun altitude
Rises 15:53:46 0° 353° (N) 2,625 7.0 -5.4°
Reaches altitude 10° 15:56:58 10° 21° (NNE) 1,736 5.8 -6.2°
Maximum altitude 15:58:56 13° 51° (NE) 1,532 5.3 -6.6°
Drops below altitude 10° 16:00:53 10° 81° (E) 1,734 5.5 -7.1°
Enters shadow 16:01:31 - 89° (E) 1,870 5.7 -7.3°
